Terminal Aerodrome Forecast
Issued by NWS Charleston, WV

Current Version | Previous Version | Graphics & Text | Print | Product List | Glossary On
Versions: 1 2 3 4 5 6 7 8 9 10 11 12 13 14 15 16 17 18 19 20 21 22 23 24 25
661
FTUS41 KRLX 271120
TAFEKN
TAF
KEKN 271120Z 2712/2812 17002KT P6SM SCT045 OVC080
     FM271500 19006KT P6SM -SHRA OVC045
     FM280000 15003KT P6SM BKN080
     FM280500 15002KT P6SM BKN120=

USA.gov is the U.S. government's official web portal to all federal, state and local government web resources and services.